| time (UTC) | temp F | wind direction | speed knots | gust knots | rain 1hr in | rain 24hr in | rain mn in | humidity % | barometer mb |
| 20260510043943 | 51 | 0 | 0.0 | 1.7 | 0.00 | 0.00 | 0.00 | 91 | 947.0 |
| 20260510043635 | 51 | 0 | 0.0 | 1.7 | 0.00 | 0.00 | 0.00 | 91 | 947.0 |
| 20260510043137 | 51 | 0 | 1.7 | 1.7 | 0.00 | 0.00 | 0.00 | 91 | 947.0 |
| 20260510042635 | 51 | 0 | 0.0 | 1.7 | 0.00 | 0.00 | 0.00 | 91 | 947.0 |
| 20260510042134 | 51 | 270 | 0.0 | 1.7 | 0.00 | 0.00 | 0.00 | 91 | 947.0 |
| 20260510041635 | 51 | 338 | 0.0 | 2.6 | 0.00 | 0.00 | 0.00 | 91 | 947.0 |
| 20260510041146 | 51 | 338 | 0.0 | 3.5 | 0.00 | 0.00 | 0.00 | 91 | 947.0 |
| 20260510040646 | 51 | 338 | 0.0 | 3.5 | 0.00 | 0.00 | 0.00 | 91 | 947.0 |
| 20260510040135 | 51 | 0 | 3.5 | 3.5 | 0.00 | 0.00 | 0.00 | 91 | 947.0 |
| 20260510035634 | 51 | 0 | 0.0 | 2.6 | 0.00 | 0.00 | 0.00 | 91 | 947.0 |
| 20260510035135 | 51 | 0 | 0.0 | 2.6 | 0.00 | 0.00 | 0.00 | 91 | 947.0 |
| 20260510034636 | 51 | 0 | 0.0 | 2.6 | 0.00 | 0.00 | 0.00 | 91 | 947.0 |
| 20260510034136 | 51 | 0 | 0.0 | 0.9 | 0.00 | 0.00 | 0.00 | 91 | 947.0 |
| 20260510033635 | 51 | 0 | 0.0 | 0.9 | 0.00 | 0.00 | 0.00 | 91 | 947.0 |
| 20260510033135 | 51 | 0 | 0.0 | 1.7 | 0.00 | 0.00 | 0.00 | 91 | 947.0 |
| 20260510032641 | 51 | 0 | 0.0 | 2.6 | 0.00 | 0.00 | 0.00 | 91 | 947.0 |
| 20260510032141 | 51 | 0 | 0.0 | 2.6 | 0.00 | 0.00 | 0.00 | 91 | 947.0 |
| 20260510031636 | 51 | 0 | 0.0 | 2.6 | 0.00 | 0.00 | 0.00 | 91 | 947.0 |
| 20260510031135 | 51 | 0 | 0.0 | 2.6 | 0.00 | 0.00 | 0.00 | 91 | 947.0 |
| 20260510030649 | 51 | 22 | 2.6 | 4.3 | 0.00 | 0.00 | 0.00 | 91 | 947.0 |
| 20260510030134 | 51 | 22 | 0.0 | 4.3 | 0.00 | 0.00 | 0.00 | 91 | 947.0 |
| 20260510025635 | 51 | 0 | 1.7 | 4.3 | 0.00 | 0.00 | 0.00 | 91 | 947.0 |
| 20260510025134 | 51 | 0 | 3.5 | 3.5 | 0.00 | 0.00 | 0.00 | 91 | 947.0 |
| 20260510024635 | 51 | 0 | 0.0 | 3.5 | 0.00 | 0.00 | 0.00 | 91 | 947.0 |
| 20260510024136 | 51 | 0 | 0.0 | 3.5 | 0.00 | 0.00 | 0.00 | 91 | 947.0 |
| 20260510023636 | 51 | 0 | 3.5 | 3.5 | 0.00 | 0.00 | 0.00 | 91 | 947.0 |
| 20260510023135 | 51 | 0 | 1.7 | 2.6 | 0.00 | 0.00 | 0.00 | 91 | 947.0 |
| 20260510022635 | 51 | 0 | 0.9 | 2.6 | 0.00 | 0.00 | 0.00 | 91 | 947.0 |
| 20260510022142 | 52 | 0 | 0.0 | 0.0 | 0.00 | 0.00 | 0.00 | 91 | 947.0 |
| 20260510021635 | 52 | 0 | 0.0 | 2.6 | 0.00 | 0.00 | 0.00 | 91 | 947.0 |
| 20260510021135 | 52 | 0 | 0.0 | 2.6 | 0.00 | 0.00 | 0.00 | 91 | 947.0 |
| 20260510020636 | 52 | 0 | 1.7 | 2.6 | 0.00 | 0.00 | 0.00 | 91 | 947.0 |
| 20260510020152 | 52 | 0 | 0.0 | 1.7 | 0.00 | 0.00 | 0.00 | 91 | 947.0 |
| 20260510015636 | 52 | 0 | 0.0 | 0.0 | 0.00 | 0.00 | 0.00 | 91 | 947.0 |
| 20260510015134 | 52 | 0 | 0.0 | 1.7 | 0.00 | 0.00 | 0.00 | 91 | 947.0 |
| 20260510014635 | 52 | 0 | 0.0 | 1.7 | 0.00 | 0.00 | 0.00 | 91 | 947.0 |
| 20260510014134 | 52 | 0 | 1.7 | 2.6 | 0.00 | 0.00 | 0.00 | 91 | 947.0 |
| 20260510013638 | 52 | 0 | 0.0 | 2.6 | 0.00 | 0.00 | 0.00 | 91 | 947.0 |
| 20260510013135 | 52 | 0 | 0.0 | 2.6 | 0.00 | 0.00 | 0.00 | 90 | 947.0 |
| 20260510012635 | 52 | 0 | 1.7 | 1.7 | 0.00 | 0.00 | 0.00 | 90 | 947.0 |
| 20260510012135 | 52 | 0 | 1.7 | 2.6 | 0.00 | 0.00 | 0.00 | 90 | 947.0 |
| 20260510011646 | 52 | 0 | 0.0 | 2.6 | 0.00 | 0.00 | 0.00 | 90 | 947.0 |
| 20260510011134 | 52 | 45 | 0.0 | 2.6 | 0.00 | 0.00 | 0.00 | 90 | 947.0 |
| 20260510010636 | 52 | 45 | 0.0 | 2.6 | 0.00 | 0.00 | 0.00 | 90 | 947.0 |
| 20260510010135 | 52 | 45 | 0.0 | 0.9 | 0.00 | 0.00 | 0.00 | 90 | 947.0 |
| 20260510005655 | 52 | 45 | 0.0 | 0.9 | 0.00 | 0.00 | 0.00 | 90 | 947.0 |
| 20260510005134 | 52 | 45 | 0.0 | 0.9 | 0.00 | 0.00 | 0.00 | 90 | 947.0 |
| 20260510004635 | 52 | 45 | 0.0 | 0.0 | 0.00 | 0.00 | 0.00 | 90 | 947.0 |
| 20260510004134 | 52 | 45 | 0.0 | 0.0 | 0.00 | 0.00 | 0.00 | 90 | 947.0 |
| 20260510003634 | 52 | 45 | 0.0 | 1.7 | 0.00 | 0.00 | 0.00 | 90 | 947.0 |
| 20260510003141 | 53 | 45 | 0.0 | 1.7 | 0.00 | 0.00 | 0.00 | 90 | 947.0 |
| 20260510002635 | 53 | 45 | 0.0 | 1.7 | 0.00 | 0.00 | 0.00 | 90 | 947.0 |
| 20260510002134 | 53 | 45 | 0.0 | 1.7 | 0.00 | 0.00 | 0.00 | 90 | 947.0 |
| 20260510001635 | 53 | 45 | 0.0 | 1.7 | 0.00 | 0.00 | 0.00 | 90 | 947.0 |
| 20260510001150 | 53 | 45 | 0.0 | 0.0 | 0.00 | 0.00 | 0.00 | 90 | 947.0 |
| 20260510000636 | 53 | 45 | 0.0 | 0.0 | 0.00 | 0.00 | 0.00 | 90 | 947.0 |
| 20260510000135 | 53 | 45 | 0.0 | 0.0 | 0.00 | 0.00 | 0.00 | 90 | 947.0 |
| 20260509235635 | 53 | 45 | 0.0 | 0.0 | 0.00 | 0.00 | 0.00 | 90 | 947.0 |
| 20260509235134 | 53 | 0 | 0.0 | 0.0 | 0.00 | 0.00 | 0.00 | 90 | 947.0 |
| 20260509234635 | 53 | 45 | 0.0 | 0.0 | 0.00 | 0.00 | 0.00 | 90 | 947.0 |
| 20260509234134 | 53 | 45 | 0.0 | 0.0 | 0.00 | 0.00 | 0.00 | 90 | 947.0 |
| 20260509233634 | 53 | 45 | 0.0 | 0.0 | 0.00 | 0.00 | 0.00 | 90 | 947.0 |
| 20260509233135 | 53 | 45 | 0.0 | 0.0 | 0.00 | 0.00 | 0.00 | 90 | 947.0 |
| 20260509232644 | 53 | 45 | 0.0 | 0.0 | 0.00 | 0.00 | 0.00 | 90 | 947.0 |
| 20260509232135 | 53 | 45 | 0.0 | 0.0 | 0.00 | 0.00 | 0.00 | 90 | 947.0 |
| 20260509231635 | 54 | 45 | 0.0 | 0.0 | 0.00 | 0.00 | 0.00 | 90 | 947.0 |
| 20260509231135 | 54 | 45 | 0.0 | 0.0 | 0.00 | 0.00 | 0.00 | 90 | 947.0 |
| 20260509230654 | 54 | 45 | 0.0 | 0.0 | 0.00 | 0.00 | 0.00 | 90 | 947.0 |
| 20260509230135 | 54 | 45 | 0.0 | 4.3 | 0.00 | 0.00 | 0.00 | 90 | 947.0 |
| 20260509225635 | 54 | 45 | 0.0 | 4.3 | 0.00 | 0.00 | 0.00 | 90 | 947.0 |
| 20260509225134 | 54 | 45 | 0.0 | 0.9 | 0.00 | 0.00 | 0.00 | 90 | 947.0 |
| 20260509224635 | 54 | 45 | 0.0 | 0.9 | 0.00 | 0.00 | 0.00 | 90 | 947.0 |
| 20260509224141 | 54 | 45 | 0.9 | 0.9 | 0.00 | 0.00 | 0.00 | 90 | 947.0 |
| 20260509223634 | 54 | 45 | 0.0 | 0.0 | 0.00 | 0.00 | 0.00 | 90 | 947.0 |
| 20260509223135 | 54 | 45 | 0.0 | 0.0 | 0.00 | 0.00 | 0.00 | 90 | 947.0 |
| 20260509222635 | 54 | 45 | 0.0 | 0.0 | 0.00 | 0.00 | 0.00 | 90 | 947.0 |
| 20260509222152 | 54 | 45 | 0.0 | 0.0 | 0.00 | 0.00 | 0.00 | 90 | 947.0 |
| 20260509221635 | 54 | 45 | 0.0 | 0.0 | 0.00 | 0.00 | 0.00 | 90 | 947.0 |
| 20260509221135 | 54 | 45 | 0.0 | 0.0 | 0.00 | 0.00 | 0.00 | 90 | 947.0 |
| 20260509220634 | 54 | 45 | 0.0 | 0.0 | 0.00 | 0.00 | 0.00 | 90 | 947.0 |
| 20260509220134 | 54 | 45 | 0.0 | 0.0 | 0.00 | 0.00 | 0.00 | 90 | 947.0 |
| 20260509215638 | 54 | 45 | 0.0 | 0.0 | 0.00 | 0.00 | 0.00 | 90 | 947.0 |
| 20260509215134 | 54 | 45 | 0.0 | 0.0 | 0.00 | 0.00 | 0.00 | 90 | 947.0 |
| 20260509214634 | 54 | 45 | 0.0 | 0.0 | 0.00 | 0.00 | 0.00 | 90 | 947.0 |
| 20260509214134 | 54 | 45 | 0.0 | 0.0 | 0.00 | 0.00 | 0.00 | 90 | 947.0 |
| 20260509213649 | 54 | 45 | 0.0 | 0.0 | 0.00 | 0.00 | 0.00 | 90 | 947.0 |
| 20260509213134 | 54 | 45 | 0.0 | 0.0 | 0.00 | 0.00 | 0.00 | 90 | 947.0 |
| 20260509212635 | 54 | 45 | 0.0 | 0.0 | 0.00 | 0.00 | 0.00 | 90 | 947.0 |
| 20260509212134 | 54 | 45 | 0.0 | 0.0 | 0.00 | 0.00 | 0.00 | 90 | 947.0 |
| 20260509211634 | 54 | 45 | 0.0 | 0.0 | 0.00 | 0.00 | 0.00 | 90 | 947.0 |
| 20260509211134 | 54 | 45 | 0.0 | 0.0 | 0.00 | 0.00 | 0.00 | 90 | 947.0 |
| 20260509210634 | 54 | 45 | 0.0 | 0.0 | 0.00 | 0.00 | 0.00 | 90 | 947.0 |
| 20260509210135 | 54 | 45 | 0.0 | 0.0 | 0.00 | 0.00 | 0.00 | 90 | 947.0 |
| 20260509205635 | 54 | 45 | 0.0 | 0.0 | 0.00 | 0.00 | 0.00 | 89 | 947.0 |
| 20260509205143 | 54 | 45 | 0.0 | 0.0 | 0.00 | 0.00 | 0.00 | 89 | 947.0 |
| 20260509204634 | 54 | 45 | 0.0 | 0.0 | 0.00 | 0.00 | 0.00 | 89 | 947.0 |
| 20260509204135 | 54 | 45 | 0.0 | 0.0 | 0.00 | 0.00 | 0.00 | 89 | 947.0 |
| 20260509203635 | 55 | 45 | 0.0 | 0.0 | 0.00 | 0.00 | 0.00 | 89 | 947.0 |
| 20260509203154 | 55 | 45 | 0.0 | 0.0 | 0.00 | 0.00 | 0.00 | 89 | 947.0 |
| 20260509202635 | 55 | 45 | 0.0 | 0.0 | 0.00 | 0.00 | 0.00 | 89 | 947.0 |
| 20260509202135 | 55 | 45 | 0.0 | 0.0 | 0.00 | 0.00 | 0.00 | 89 | 947.0 |
| 20260509201634 | 55 | 45 | 0.0 | 0.0 | 0.00 | 0.00 | 0.00 | 89 | 947.0 |
| 20260509201135 | 55 | 45 | 0.0 | 0.0 | 0.00 | 0.00 | 0.00 | 89 | 947.0 |
| 20260509200642 | 55 | 45 | 0.0 | 0.0 | 0.00 | 0.00 | 0.00 | 89 | 947.0 |
| 20260509200135 | 55 | 45 | 0.0 | 0.0 | 0.00 | 0.00 | 0.00 | 89 | 947.0 |
| 20260509195633 | 55 | 45 | 0.0 | 0.0 | 0.00 | 0.00 | 0.00 | 89 | 947.0 |
| 20260509195134 | 55 | 45 | 0.0 | 0.0 | 0.00 | 0.00 | 0.00 | 89 | 948.0 |
| 20260509194651 | 55 | 45 | 0.0 | 0.0 | 0.00 | 0.00 | 0.00 | 89 | 948.0 |
| 20260509194134 | 55 | 45 | 0.0 | 0.0 | 0.00 | 0.00 | 0.00 | 89 | 948.0 |
| 20260509193635 | 55 | 45 | 0.0 | 0.0 | 0.00 | 0.00 | 0.00 | 89 | 948.0 |
| 20260509193135 | 55 | 45 | 0.0 | 0.0 | 0.00 | 0.00 | 0.00 | 89 | 948.0 |
| 20260509192634 | 55 | 45 | 0.0 | 0.0 | 0.00 | 0.00 | 0.00 | 89 | 948.0 |
| 20260509192138 | 55 | 45 | 0.0 | 0.0 | 0.00 | 0.00 | 0.00 | 89 | 948.0 |
| 20260509191634 | 55 | 45 | 0.0 | 0.0 | 0.00 | 0.00 | 0.00 | 89 | 948.0 |
| 20260509191134 | 55 | 45 | 0.0 | 0.0 | 0.00 | 0.00 | 0.00 | 88 | 948.0 |
| 20260509190634 | 55 | 45 | 0.0 | 0.0 | 0.00 | 0.00 | 0.00 | 88 | 948.0 |
| 20260509190146 | 55 | 45 | 0.0 | 0.0 | 0.00 | 0.00 | 0.00 | 88 | 948.0 |
| 20260509185634 | 55 | 45 | 0.0 | 0.0 | 0.00 | 0.00 | 0.00 | 88 | 948.0 |
| 20260509185134 | 55 | 45 | 0.0 | 0.0 | 0.00 | 0.00 | 0.00 | 88 | 948.0 |
| 20260509184634 | 55 | 45 | 0.0 | 0.0 | 0.00 | 0.00 | 0.00 | 88 | 948.0 |
| 20260509184154 | 55 | 45 | 0.0 | 0.0 | 0.00 | 0.00 | 0.00 | 88 | 947.0 |
| 20260509183634 | 55 | 45 | 0.0 | 0.0 | 0.00 | 0.00 | 0.00 | 88 | 947.0 |
| 20260509183134 | 55 | 45 | 0.0 | 0.0 | 0.00 | 0.00 | 0.00 | 88 | 947.0 |
| 20260509182635 | 55 | 45 | 0.0 | 0.0 | 0.00 | 0.00 | 0.00 | 88 | 947.0 |
| 20260509182135 | 55 | 0 | 0.0 | 0.0 | 0.00 | 0.00 | 0.00 | 88 | 947.0 |
| 20260509181641 | 55 | 45 | 0.0 | 0.0 | 0.00 | 0.00 | 0.00 | 88 | 947.0 |
| 20260509181134 | 55 | 45 | 0.0 | 0.0 | 0.00 | 0.00 | 0.00 | 88 | 947.0 |
| 20260509180635 | 55 | 45 | 0.0 | 0.0 | 0.00 | 0.00 | 0.00 | 88 | 947.0 |
| 20260509180149 | 55 | 45 | 0.0 | 0.0 | 0.00 | 0.00 | 0.00 | 88 | 947.0 |
| 20260509175648 | 55 | 45 | 0.0 | 0.0 | 0.00 | 0.00 | 0.00 | 88 | 947.0 |
| 20260509175133 | 55 | 45 | 0.0 | 0.0 | 0.00 | 0.00 | 0.00 | 88 | 947.0 |
| 20260509174634 | 55 | 45 | 0.0 | 0.0 | 0.00 | 0.00 | 0.00 | 88 | 947.0 |
| 20260509174135 | 55 | 45 | 0.0 | 0.0 | 0.00 | 0.00 | 0.00 | 88 | 947.0 |
| 20260509173634 | 55 | 45 | 0.0 | 0.0 | 0.00 | 0.00 | 0.00 | 88 | 947.0 |
| 20260509173134 | 55 | 45 | 0.0 | 0.0 | 0.00 | 0.00 | 0.00 | 88 | 947.0 |
| 20260509172634 | 56 | 45 | 0.0 | 0.0 | 0.00 | 0.00 | 0.00 | 88 | 947.0 |
| 20260509172135 | 56 | 45 | 0.0 | 0.0 | 0.00 | 0.00 | 0.00 | 88 | 947.0 |
| 20260509171644 | 56 | 45 | 0.0 | 0.0 | 0.00 | 0.00 | 0.00 | 88 | 947.0 |
| 20260509171141 | 56 | 45 | 0.0 | 0.0 | 0.00 | 0.00 | 0.00 | 88 | 947.0 |
| 20260509170634 | 56 | 45 | 0.0 | 0.0 | 0.00 | 0.00 | 0.00 | 88 | 947.0 |
| 20260509170134 | 56 | 45 | 0.0 | 0.0 | 0.00 | 0.00 | 0.00 | 87 | 947.0 |
| 20260509165653 | 56 | 45 | 0.0 | 0.0 | 0.00 | 0.00 | 0.00 | 87 | 947.0 |
| 20260509165220 | 56 | 45 | 0.0 | 0.0 | 0.00 | 0.00 | 0.00 | 87 | 947.0 |
| 20260509164635 | 56 | 45 | 0.0 | 0.0 | 0.00 | 0.00 | 0.00 | 87 | 947.0 |
| 20260509164133 | 56 | 45 | 0.0 | 0.0 | 0.00 | 0.00 | 0.00 | 87 | 947.0 |
| 20260509163635 | 56 | 45 | 0.0 | 0.0 | 0.00 | 0.00 | 0.00 | 87 | 947.0 |
| 20260509163141 | 57 | 45 | 0.0 | 0.0 | 0.00 | 0.00 | 0.00 | 87 | 947.0 |
| 20260509162637 | 57 | 45 | 0.0 | 0.0 | 0.00 | 0.00 | 0.00 | 87 | 947.0 |
| 20260509162133 | 57 | 45 | 0.0 | 0.0 | 0.00 | 0.00 | 0.00 | 87 | 947.0 |
| 20260509161634 | 57 | 45 | 0.0 | 0.0 | 0.00 | 0.00 | 0.00 | 87 | 947.0 |
| 20260509161151 | 57 | 45 | 0.0 | 0.0 | 0.00 | 0.00 | 0.00 | 87 | 947.0 |
| 20260509160717 | 57 | 45 | 0.0 | 0.0 | 0.00 | 0.00 | 0.00 | 86 | 947.0 |
| 20260509160134 | 58 | 45 | 0.0 | 0.0 | 0.00 | 0.00 | 0.00 | 86 | 947.0 |
| 20260509155633 | 58 | 45 | 0.0 | 0.0 | 0.00 | 0.00 | 0.00 | 86 | 947.0 |
| 20260509155135 | 58 | 45 | 0.0 | 0.0 | 0.00 | 0.00 | 0.00 | 86 | 947.0 |
| 20260509154638 | 58 | 45 | 0.0 | 0.0 | 0.00 | 0.00 | 0.00 | 86 | 947.0 |
| 20260509154138 | 58 | 45 | 0.0 | 0.0 | 0.00 | 0.00 | 0.00 | 86 | 947.0 |
| 20260509153633 | 59 | 45 | 0.0 | 0.0 | 0.00 | 0.00 | 0.00 | 86 | 947.0 |
| 20260509153134 | 59 | 45 | 0.0 | 0.0 | 0.00 | 0.00 | 0.00 | 86 | 947.0 |
| 20260509152647 | 59 | 45 | 0.0 | 0.0 | 0.00 | 0.00 | 0.00 | 87 | 947.0 |
| 20260509152214 | 59 | 45 | 0.0 | 0.0 | 0.00 | 0.00 | 0.00 | 86 | 947.0 |
| 20260509151634 | 59 | 45 | 0.0 | 0.0 | 0.00 | 0.00 | 0.00 | 86 | 947.0 |
| 20260509151133 | 59 | 45 | 0.0 | 0.0 | 0.00 | 0.00 | 0.00 | 86 | 947.0 |
| 20260509150634 | 59 | 45 | 0.0 | 0.0 | 0.00 | 0.00 | 0.00 | 86 | 947.0 |
| 20260509150136 | 59 | 45 | 0.0 | 0.0 | 0.00 | 0.00 | 0.00 | 86 | 947.0 |
| 20260509145634 | 59 | 45 | 0.0 | 0.0 | 0.00 | 0.00 | 0.00 | 86 | 947.0 |
| 20260509045418 | 56 | 45 | 0.0 | 1.7 | 0.00 | 0.00 | 0.00 | 88 | 948.0 |
| 20260509044418 | 56 | 45 | 1.7 | 2.6 | 0.00 | 0.00 | 0.00 | 88 | 948.0 |